�������l�o���
Date,Time,MP-1(��Sv/h),MP-2(��Sv/h),MP-3(��Sv/h),MP-4(��Sv/h),MP-5(��Sv/h),MP-6(��Sv/h),MP-7(��Sv/h),MP-8(��Sv/h),����,����(m/s),���J
2023/12/09,00:00,0.513,0.778,0.484,0.974,0.697,0.311,0.561,0.524,��쐼,5.2,��
2023/12/09,00:10,0.512,0.778,0.482,0.973,0.697,0.312,0.561,0.523,��쐼,6.0,��
2023/12/09,00:20,0.513,0.777,0.484,0.974,0.698,0.315,0.562,0.525,��쐼,5.7,��
2023/12/09,00:30,0.513,0.777,0.484,0.972,0.698,0.312,0.562,0.525,��,6.5,��
2023/12/09,00:40,0.512,0.779,0.483,0.971,0.698,0.312,0.561,0.525,��쓌,5.1,��
2023/12/09,00:50,0.513,0.779,0.484,0.973,0.696,0.313,0.562,0.526,��쓌,4.2,��
2023/12/09,01:00,0.514,0.778,0.483,0.974,0.697,0.314,0.562,0.525,��,6.5,��
2023/12/09,01:10,0.515,0.779,0.484,0.973,0.697,0.313,0.562,0.525,��,6.9,��
2023/12/09,01:20,0.515,0.777,0.483,0.974,0.697,0.312,0.560,0.526,��,7.0,��
2023/12/09,01:30,0.512,0.778,0.482,0.973,0.697,0.312,0.561,0.524,��쐼,7.8,��
2023/12/09,01:40,0.512,0.779,0.484,0.974,0.697,0.312,0.562,0.526,��쐼,8.5,��
2023/12/09,01:50,0.513,0.780,0.484,0.973,0.698,0.313,0.562,0.525,��쐼,8.1,��
2023/12/09,02:00,0.513,0.780,0.485,0.973,0.697,0.313,0.564,0.526,��쐼,6.8,��
2023/12/09,02:10,0.514,0.777,0.484,0.974,0.699,0.312,0.562,0.526,��,6.9,��
2023/12/09,02:20,0.513,0.778,0.484,0.972,0.698,0.314,0.561,0.526,��,7.8,��
2023/12/09,02:30,0.513,0.777,0.484,0.972,0.696,0.314,0.562,0.525,��,8.6,��
2023/12/09,02:40,0.513,0.779,0.485,0.973,0.697,0.312,0.562,0.524,��쐼,8.8,��
2023/12/09,02:50,0.514,0.778,0.484,0.973,0.697,0.312,0.562,0.525,��쐼,9.6,��
2023/12/09,03:00,0.513,0.777,0.484,0.971,0.699,0.313,0.561,0.525,��쐼,9.8,��
2023/12/09,03:10,0.515,0.778,0.484,0.972,0.695,0.314,0.563,0.526,��쐼,8.6,��
2023/12/09,03:20,0.512,0.779,0.484,0.972,0.696,0.314,0.563,0.526,��쐼,8.7,��
2023/12/09,03:30,0.513,0.778,0.484,0.974,0.696,0.311,0.562,0.525,��쐼,9.3,��
2023/12/09,03:40,0.513,0.781,0.484,0.973,0.697,0.313,0.563,0.526,��쐼,8.1,��
2023/12/09,03:50,0.513,0.778,0.482,0.976,0.696,0.313,0.562,0.526,��쐼,6.1,��
2023/12/09,04:00,0.515,0.779,0.481,0.973,0.697,0.314,0.563,0.523,��쐼,7.2,��
2023/12/09,04:10,0.512,0.777,0.484,0.971,0.697,0.313,0.561,0.527,��쐼,7.2,��
2023/12/09,04:20,0.514,0.780,0.484,0.975,0.699,0.314,0.562,0.526,��쐼,8.2,��
2023/12/09,04:30,0.513,0.779,0.486,0.973,0.700,0.313,0.563,0.526,��쐼,8.1,��
2023/12/09,04:40,0.513,0.779,0.484,0.973,0.698,0.313,0.564,0.526,��쐼,7.6,��
2023/12/09,04:50,0.515,0.779,0.484,0.973,0.699,0.313,0.564,0.525,��쐼,6.7,��
2023/12/09,05:00,0.514,0.780,0.485,0.973,0.695,0.313,0.562,0.527,��쐼,5.9,��
2023/12/09,05:10,0.513,0.780,0.484,0.975,0.697,0.312,0.562,0.527,��쐼,6.8,��
2023/12/09,05:20,0.514,0.779,0.484,0.975,0.697,0.312,0.564,0.525,��쐼,5.5,��
2023/12/09,05:30,0.514,0.778,0.483,0.973,0.697,0.311,0.562,0.526,��쐼,6.2,��
2023/12/09,05:40,0.512,0.779,0.485,0.975,0.698,0.314,0.563,0.527,��쐼,6.2,��
2023/12/09,05:50,0.513,0.777,0.485,0.972,0.698,0.313,0.562,0.525,��쐼,6.5,��
2023/12/09,06:00,0.513,0.779,0.484,0.973,0.696,0.312,0.563,0.526,��쐼,6.7,��
2023/12/09,06:10,0.513,0.778,0.484,0.974,0.698,0.314,0.563,0.525,��쐼,6.3,��
2023/12/09,06:20,0.513,0.778,0.484,0.974,0.698,0.313,0.561,0.526,��쐼,5.2,��
2023/12/09,06:30,0.513,0.778,0.483,0.973,0.699,0.313,0.562,0.526,�쐼,4.1,��
2023/12/09,06:40,0.513,0.778,0.484,0.972,0.694,0.312,0.563,0.524,�쐼,3.0,��
2023/12/09,06:50,0.514,0.778,0.481,0.973,0.697,0.314,0.563,0.526,�쐼,2.6,��
2023/12/09,07:00,0.513,0.779,0.485,0.971,0.697,0.313,0.562,0.525,�쐼,3.0,��
2023/12/09,07:10,0.512,0.778,0.484,0.973,0.697,0.312,0.562,0.526,�쐼,2.9,��
2023/12/09,07:20,0.512,0.779,0.484,0.975,0.696,0.313,0.561,0.526,���쐼,2.8,��
2023/12/09,07:30,0.513,0.781,0.484,0.974,0.698,0.313,0.563,0.526,�쐼,2.3,��
2023/12/09,07:40,0.512,0.778,0.483,0.974,0.698,0.311,0.561,0.526,��쐼,2.0,��
2023/12/09,07:50,0.512,0.780,0.484,0.973,0.698,0.314,0.561,0.525,��쐼,1.7,��
2023/12/09,08:00,0.513,0.779,0.484,0.973,0.698,0.311,0.563,0.526,��,1.2,��
2023/12/09,08:10,0.513,0.780,0.483,0.972,0.698,0.312,0.563,0.525,��쓌,0.8,��
2023/12/09,08:20,0.513,0.779,0.483,0.973,0.698,0.313,0.563,0.523,���쓌,0.8,��
2023/12/09,08:30,0.514,0.776,0.484,0.974,0.698,0.312,0.563,0.525,��쓌,1.2,��
2023/12/09,08:40,0.513,0.778,0.483,0.973,0.696,0.314,0.563,0.524,��쓌,1.7,��
2023/12/09,08:50,0.513,0.779,0.482,0.973,0.699,0.314,0.564,0.527,��,1.5,��
2023/12/09,09:00,0.514,0.779,0.483,0.975,0.697,0.314,0.563,0.526,��,0.6,��
2023/12/09,09:10,0.514,0.779,0.484,0.974,0.696,0.315,0.561,0.526,-,CALM,��
2023/12/09,09:20,0.513,0.779,0.484,0.973,0.698,0.313,0.561,0.525,�k�k��,0.9,��
2023/12/09,09:30,0.514,0.780,0.485,0.973,0.699,0.313,0.561,0.525,�k��,1.5,��
2023/12/09,09:40,0.511,0.777,0.485,0.974,0.697,0.312,0.560,0.526,�k�k��,2.6,��
2023/12/09,09:50,0.512,0.778,0.484,0.973,0.697,0.313,0.562,0.526,�k��,1.5,��
2023/12/09,10:00,0.512,0.775,0.485,0.974,0.699,0.314,0.561,0.527,�k�k��,0.9,��
2023/12/09,10:10,0.513,0.776,0.484,0.975,0.699,0.315,0.562,0.527,�쓌,0.8,��
2023/12/09,10:20,0.512,0.778,0.485,0.977,0.698,0.314,0.561,0.528,-,CALM,��
2023/12/09,10:30,0.514,0.779,0.485,0.973,0.698,0.314,0.561,0.527,���쓌,1.7,��
2023/12/09,10:40,0.513,0.777,0.484,0.975,0.697,0.313,0.561,0.527,���k��,2.3,��
2023/12/09,10:50,0.514,0.777,0.482,0.976,0.695,0.311,0.560,0.527,��,1.7,��
2023/12/09,11:00,0.512,0.780,0.484,0.976,0.700,0.313,0.562,0.527,��,2.3,��
2023/12/09,11:10,0.512,0.780,0.482,0.974,0.699,0.312,0.562,0.526,��,2.2,��
2023/12/09,11:20,0.514,0.777,0.482,0.975,0.697,0.312,0.563,0.527,��,2.5,��
2023/12/09,11:30,0.513,0.779,0.484,0.974,0.700,0.313,0.563,0.526,���쓌,2.5,��
2023/12/09,11:40,0.513,0.777,0.483,0.975,0.699,0.312,0.561,0.528,�쓌,2.6,��
2023/12/09,11:50,0.513,0.779,0.483,0.977,0.700,0.313,0.561,0.527,��쓌,2.8,��
2023/12/09,12:00,0.515,0.780,0.485,0.975,0.701,0.314,0.562,0.526,��쓌,2.8,��
2023/12/09,12:10,0.513,0.780,0.483,0.975,0.700,0.314,0.564,0.527,��쓌,2.6,��
2023/12/09,12:20,0.514,0.780,0.483,0.977,0.701,0.315,0.562,0.527,��쓌,3.1,��
2023/12/09,12:30,0.513,0.781,0.485,0.977,0.700,0.315,0.563,0.525,��쓌,2.3,��
2023/12/09,12:40,0.513,0.780,0.485,0.974,0.703,0.315,0.564,0.526,��쓌,3.2,��
2023/12/09,12:50,0.513,0.779,0.484,0.975,0.699,0.315,0.562,0.525,��쓌,4.2,��
2023/12/09,13:00,0.514,0.779,0.484,0.977,0.699,0.315,0.563,0.523,��쓌,3.8,��
2023/12/09,13:10,0.512,0.782,0.485,0.976,0.701,0.313,0.563,0.525,��쓌,4.1,��
2023/12/09,13:20,0.512,0.780,0.484,0.977,0.700,0.314,0.563,0.525,��쓌,4.5,��
2023/12/09,13:30,0.514,0.779,0.484,0.976,0.700,0.313,0.563,0.524,��쓌,4.7,��
2023/12/09,13:40,0.514,0.782,0.484,0.975,0.697,0.315,0.563,0.524,��쓌,3.3,��
2023/12/09,13:50,0.514,0.781,0.485,0.976,0.699,0.313,0.563,0.523,��쓌,3.8,��
2023/12/09,14:00,0.514,0.780,0.486,0.974,0.699,0.315,0.563,0.525,��쓌,3.9,��
2023/12/09,14:10,0.514,0.781,0.486,0.976,0.700,0.314,0.563,0.525,��쓌,3.4,��
2023/12/09,14:20,0.512,0.781,0.484,0.977,0.699,0.314,0.563,0.525,��쓌,3.9,��
2023/12/09,14:30,0.514,0.781,0.483,0.977,0.702,0.315,0.563,0.524,��,2.6,��
2023/12/09,14:40,0.514,0.781,0.486,0.975,0.700,0.315,0.564,0.525,��,2.5,��
2023/12/09,14:50,0.514,0.783,0.484,0.975,0.701,0.314,0.563,0.525,��쐼,1.7,��
2023/12/09,15:00,0.512,0.780,0.485,0.973,0.699,0.314,0.563,0.526,��쓌,1.2,��
2023/12/09,15:10,0.513,0.782,0.486,0.976,0.700,0.315,0.564,0.524,�쓌,1.8,��
2023/12/09,15:20,0.515,0.785,0.485,0.976,0.699,0.315,0.563,0.526,���쓌,1.5,��
2023/12/09,15:30,0.514,0.781,0.485,0.974,0.699,0.315,0.563,0.525,���쓌,0.6,��
2023/12/09,15:40,0.512,0.782,0.485,0.976,0.698,0.314,0.564,0.527,�k,1.2,��
2023/12/09,15:50,0.514,0.783,0.484,0.975,0.698,0.315,0.565,0.527,�k,1.2,��
2023/12/09,16:00,0.514,0.783,0.484,0.976,0.699,0.313,0.564,0.527,�k�k��,1.9,��
2023/12/09,16:10,0.513,0.782,0.484,0.977,0.699,0.316,0.563,0.527,�k�k��,1.7,��
2023/12/09,16:20,0.512,0.782,0.485,0.975,0.698,0.315,0.565,0.528,�k�k��,2.0,��
2023/12/09,16:30,0.512,0.780,0.487,0.974,0.698,0.314,0.563,0.528,�k�k��,2.3,��
2023/12/09,16:40,0.514,0.782,0.487,0.974,0.700,0.314,0.563,0.528,�k�k��,2.3,��
2023/12/09,16:50,0.516,0.782,0.486,0.974,0.701,0.315,0.565,0.528,�k�k��,1.5,��
2023/12/09,17:00,0.515,0.783,0.486,0.976,0.700,0.314,0.564,0.527,�k��,0.6,��
2023/12/09,17:10,0.514,0.784,0.487,0.976,0.702,0.314,0.563,0.526,�k�k��,1.2,��
2023/12/09,17:20,0.514,0.781,0.486,0.978,0.701,0.314,0.563,0.525,�k,1.7,��
2023/12/09,17:30,0.516,0.783,0.485,0.975,0.700,0.314,0.563,0.526,�k�k��,0.9,��
2023/12/09,17:40,0.515,0.782,0.485,0.974,0.699,0.315,0.564,0.526,�k�k��,0.9,��
2023/12/09,17:50,0.513,0.780,0.486,0.975,0.700,0.314,0.562,0.526,�k��,0.9,��
2023/12/09,18:00,0.514,0.782,0.486,0.976,0.700,0.315,0.564,0.526,��,0.9,��
2023/12/09,18:10,0.516,0.782,0.486,0.974,0.701,0.315,0.564,0.527,��,1.5,��
2023/12/09,18:20,0.514,0.781,0.486,0.976,0.700,0.315,0.564,0.526,��,1.5,��
2023/12/09,18:30,0.514,0.780,0.487,0.976,0.702,0.313,0.564,0.527,���k��,2.6,��
2023/12/09,18:40,0.515,0.781,0.485,0.975,0.700,0.314,0.563,0.525,��,2.6,��
2023/12/09,18:50,0.516,0.782,0.486,0.977,0.700,0.315,0.562,0.526,��,3.4,��
2023/12/09,19:00,0.513,0.781,0.485,0.976,0.701,0.313,0.563,0.525,���k��,4.7,��
2023/12/09,19:10,0.515,0.781,0.486,0.975,0.703,0.313,0.565,0.526,��,4.0,��
2023/12/09,19:20,0.515,0.781,0.486,0.977,0.702,0.313,0.563,0.524,��,4.7,��
2023/12/09,19:30,0.514,0.780,0.487,0.974,0.700,0.314,0.563,0.526,��,4.4,��
2023/12/09,19:40,0.515,0.781,0.485,0.975,0.698,0.313,0.563,0.525,��,5.2,��
2023/12/09,19:50,0.515,0.783,0.485,0.975,0.700,0.313,0.565,0.525,��,4.9,��
2023/12/09,20:00,0.514,0.782,0.486,0.975,0.701,0.314,0.562,0.526,��,4.9,��
2023/12/09,20:10,0.514,0.782,0.486,0.977,0.700,0.312,0.563,0.527,��,4.0,��
2023/12/09,20:20,0.515,0.780,0.487,0.976,0.702,0.313,0.563,0.527,���k��,4.3,��
2023/12/09,20:30,0.513,0.780,0.485,0.977,0.700,0.314,0.564,0.524,���k��,3.8,��
2023/12/09,20:40,0.515,0.781,0.487,0.975,0.701,0.314,0.563,0.526,���k��,3.9,��
2023/12/09,20:50,0.514,0.781,0.485,0.977,0.699,0.314,0.563,0.525,���k��,4.9,��
2023/12/09,21:00,0.515,0.781,0.486,0.975,0.700,0.314,0.563,0.525,���k��,5.4,��
2023/12/09,21:10,0.515,0.779,0.486,0.977,0.702,0.314,0.562,0.527,���k��,5.3,��
2023/12/09,21:20,0.514,0.781,0.486,0.977,0.700,0.315,0.562,0.527,���k��,5.5,��
2023/12/09,21:30,0.515,0.782,0.486,0.976,0.699,0.312,0.562,0.525,���k��,5.9,��
2023/12/09,21:40,0.512,0.781,0.486,0.977,0.700,0.313,0.562,0.525,��,5.2,��
2023/12/09,21:50,0.513,0.781,0.485,0.976,0.699,0.315,0.563,0.525,��,4.1,��
2023/12/09,22:00,0.515,0.782,0.485,0.976,0.700,0.314,0.564,0.528,���쐼,2.3,��
2023/12/09,22:10,0.513,0.782,0.484,0.978,0.700,0.314,0.562,0.524,��,2.8,��
2023/12/09,22:20,0.513,0.781,0.485,0.976,0.701,0.314,0.563,0.526,���k��,2.6,��
2023/12/09,22:30,0.514,0.781,0.486,0.975,0.701,0.313,0.563,0.526,���k��,2.6,��
2023/12/09,22:40,0.515,0.779,0.485,0.977,0.700,0.313,0.563,0.526,��,2.6,��
2023/12/09,22:50,0.515,0.783,0.486,0.976,0.703,0.314,0.562,0.525,���k��,3.0,��
2023/12/09,23:00,0.516,0.779,0.485,0.976,0.700,0.314,0.562,0.527,���k��,2.2,��
2023/12/09,23:10,0.513,0.779,0.487,0.974,0.699,0.313,0.564,0.527,�k��,2.6,��
2023/12/09,23:20,0.515,0.781,0.485,0.975,0.701,0.314,0.561,0.526,�k�k��,3.7,��
2023/12/09,23:30,0.513,0.783,0.485,0.976,0.701,0.314,0.563,0.525,�k��,5.4,��
2023/12/09,23:40,0.514,0.781,0.485,0.976,0.701,0.315,0.563,0.526,�k��,4.3,��
2023/12/09,23:50,0.515,0.781,0.486,0.977,0.698,0.313,0.563,0.525,�k��,4.5,��
